User: anonymous   Login
Location: Unspecified
(0.0000°N, 0.0000°E)
Time: 10:20:39
(UTC+00:00)
Language:

GONETS D1M 1 - Orbit

View from above orbital plane
View from above orbital plane
View from above satellite
View from above satellite

Ground track
Ground track

The orbit data is extracted from the following two-line orbital elements,

1 28908U 05048A   17080.93003140 +.00000009 +00000-0 -99503-5 0  9991
2 28908 082.4671 305.1203 0007429 135.5217 355.3820 12.55475555515468
Epoch (UTC): 21 March 2017 22:19:14
Eccentricity: 0.0007429
inclination: 82.4671°
perigee height: 1436 km
apogee height: 1447 km
right ascension of ascending node: 305.1203°
argument of perigee: 135.5217°
revolutions per day: 12.55475555
mean anomaly at epoch: 355.3820°
orbit number at epoch: 51546

The dashed part of the orbit path shows where the satellite is in the earth's shadow,  

DLR